• In Deutschland
  • Länderverzeichnis
  • Für 7 Tage
  • Wassertemperatur
  • Satellitenkarten
  • Wetterkarte
  • Widgets
  • user-avatar
    Anmelden

    Stündliche Wetter Mykhailivka

    Heute, 24 September, Montag

    Zeit Temperatur Niederschläge Wind Luftdruck Luftfeuchtigkeit
    00:00 +14°C° 0 mm 1 m/S 762 mmHg 64%
    01:00 +13°C° 0 mm 2 m/S 761 mmHg 65%
    02:00 +13°C° 0 mm 2 m/S 761 mmHg 66%
    03:00 +12°C° 0 mm 3 m/S 761 mmHg 68%
    04:00 +12°C° 0 mm 4 m/S 760 mmHg 69%
    05:00 +12°C° 0 mm 4 m/S 760 mmHg 71%
    06:00 +13°C° 0 mm 5 m/S 760 mmHg 67%
    07:00 +15°C° 0 mm 6 m/S 759 mmHg 62%
    08:00 +16°C° 0 mm 6 m/S 759 mmHg 58%
    09:00 +19°C° 0 mm 6 m/S 758 mmHg 55%
    10:00 +21°C° 0 mm 6 m/S 758 mmHg 52%
    11:00 +22°C° 0 mm 6 m/S 757 mmHg 49%
    12:00 +23°C° 0 mm 7 m/S 756 mmHg 51%
    13:00 +24°C° 0 mm 8 m/S 756 mmHg 52%
    14:00 +26°C° 0 mm 9 m/S 755 mmHg 54%
    15:00 +24°C° 0.1 mm 8 m/S 755 mmHg 59%
    16:00 +24°C° 0.1 mm 8 m/S 755 mmHg 65%
    17:00 +23°C° 0.1 mm 8 m/S 754 mmHg 71%
    18:00 +21°C° 0.8 mm 9 m/S 755 mmHg 72%
    19:00 +17°C° 0.8 mm 10 m/S 756 mmHg 72%
    20:00 +14°C° 0.8 mm 10 m/S 756 mmHg 73%
    21:00 +13°C° 0.4 mm 10 m/S 757 mmHg 73%
    22:00 +12°C° 0.4 mm 9 m/S 758 mmHg 74%
    23:00 +12°C° 0.4 mm 9 m/S 758 mmHg 74%

    Morgen, 25 September, Dienstag

    Zeit Temperatur Niederschläge Wind Luftdruck Luftfeuchtigkeit
    00:00 +11°C° 0.8 mm 8 m/S 759 mmHg 75%
    01:00 +11°C° 0.8 mm 7 m/S 759 mmHg 76%
    02:00 +10°C° 0.8 mm 7 m/S 759 mmHg 77%
    03:00 +10°C° 0 mm 7 m/S 760 mmHg 75%
    04:00 +10°C° 0 mm 7 m/S 760 mmHg 73%
    05:00 +10°C° 0 mm 7 m/S 760 mmHg 71%
    06:00 +10°C° 0 mm 8 m/S 760 mmHg 68%
    07:00 +10°C° 0 mm 8 m/S 761 mmHg 65%
    08:00 +10°C° 0 mm 8 m/S 761 mmHg 62%
    09:00 +11°C° 0 mm 8 m/S 762 mmHg 57%
    10:00 +12°C° 0 mm 8 m/S 762 mmHg 52%
    11:00 +15°C° 0 mm 9 m/S 762 mmHg 48%
    12:00 +15°C° 0 mm 9 m/S 762 mmHg 47%
    13:00 +15°C° 0 mm 9 m/S 762 mmHg 46%
    14:00 +15°C° 0 mm 9 m/S 763 mmHg 45%
    15:00 +13°C° 0 mm 9 m/S 763 mmHg 46%
    16:00 +13°C° 0 mm 9 m/S 763 mmHg 48%
    17:00 +12°C° 0 mm 9 m/S 764 mmHg 49%
    18:00 +11°C° 0 mm 8 m/S 765 mmHg 52%
    19:00 +10°C° 0 mm 7 m/S 765 mmHg 55%
    20:00 +9°C° 0 mm 7 m/S 766 mmHg 58%
    21:00 +9°C° 0 mm 7 m/S 766 mmHg 59%
    22:00 +8°C° 0 mm 6 m/S 767 mmHg 61%
    23:00 +8°C° 0 mm 6 m/S 767 mmHg 63%

    übermorgen, 26 September, Mittwoch

    Zeit Temperatur Niederschläge Wind Luftdruck Luftfeuchtigkeit
    00:00 +7°C° 0 mm 6 m/S 767 mmHg 62%
    01:00 +7°C° 0 mm 6 m/S 768 mmHg 62%
    02:00 +7°C° 0 mm 6 m/S 768 mmHg 61%
    03:00 +7°C° 0 mm 6 m/S 768 mmHg 63%
    04:00 +5°C° 0 mm 6 m/S 768 mmHg 65%
    05:00 +5°C° 0 mm 6 m/S 769 mmHg 67%
    06:00 +7°C° 0 mm 6 m/S 769 mmHg 64%
    07:00 +7°C° 0 mm 6 m/S 769 mmHg 61%
    08:00 +8°C° 0 mm 7 m/S 770 mmHg 58%
    09:00 +10°C° 0 mm 6 m/S 770 mmHg 52%
    10:00 +11°C° 0 mm 6 m/S 770 mmHg 46%
    11:00 +13°C° 0 mm 6 m/S 770 mmHg 41%
    12:00 +13°C° 0 mm 6 m/S 770 mmHg 39%
    13:00 +14°C° 0 mm 6 m/S 770 mmHg 37%
    14:00 +14°C° 0 mm 6 m/S 770 mmHg 35%
    15:00 +13°C° 0 mm 6 m/S 770 mmHg 36%
    16:00 +13°C° 0 mm 6 m/S 770 mmHg 36%
    17:00 +11°C° 0 mm 6 m/S 770 mmHg 37%
    18:00 +10°C° 0 mm 6 m/S 770 mmHg 40%
    19:00 +9°C° 0 mm 6 m/S 771 mmHg 42%
    20:00 +9°C° 0 mm 5 m/S 771 mmHg 45%
    21:00 +8°C° 0 mm 5 m/S 771 mmHg 47%
    22:00 +7°C° 0 mm 5 m/S 771 mmHg 49%
    23:00 +7°C° 0 mm 5 m/S 771 mmHg 51%

    27 September, Donnerstag

    Zeit Temperatur Niederschläge Wind Luftdruck Luftfeuchtigkeit
    00:00 +6°C° 0 mm 5 m/S 771 mmHg 52%
    01:00 +6°C° 0 mm 5 m/S 771 mmHg 53%
    02:00 +5°C° 0 mm 5 m/S 771 mmHg 54%
    03:00 +5°C° 0 mm 4 m/S 771 mmHg 55%
    04:00 +5°C° 0 mm 3 m/S 771 mmHg 55%
    05:00 +4°C° 0 mm 3 m/S 770 mmHg 56%
    06:00 +6°C° 0 mm 2 m/S 770 mmHg 52%
    07:00 +8°C° 0 mm 2 m/S 770 mmHg 48%
    08:00 +9°C° 0 mm 2 m/S 770 mmHg 44%
    09:00 +10°C° 0 mm 2 m/S 770 mmHg 40%
    10:00 +13°C° 0 mm 2 m/S 770 mmHg 35%
    11:00 +14°C° 0 mm 2 m/S 770 mmHg 31%
    12:00 +15°C° 0 mm 2 m/S 770 mmHg 29%
    13:00 +16°C° 0 mm 2 m/S 769 mmHg 28%
    14:00 +17°C° 0 mm 3 m/S 768 mmHg 27%
    15:00 +16°C° 0 mm 3 m/S 768 mmHg 30%
    16:00 +16°C° 0 mm 3 m/S 768 mmHg 33%
    17:00 +14°C° 0 mm 3 m/S 767 mmHg 36%
    18:00 +13°C° 0 mm 3 m/S 767 mmHg 40%
    19:00 +12°C° 0 mm 3 m/S 767 mmHg 45%
    20:00 +12°C° 0 mm 2 m/S 768 mmHg 49%
    21:00 +12°C° 0 mm 2 m/S 767 mmHg 51%
    22:00 +12°C° 0 mm 2 m/S 767 mmHg 53%
    23:00 +10°C° 0 mm 2 m/S 767 mmHg 55%

    28 September, Freitag

    Zeit Temperatur Niederschläge Wind Luftdruck Luftfeuchtigkeit
    00:00 +12°C° 0 mm 2 m/S 767 mmHg 56%
    01:00 +12°C° 0 mm 2 m/S 766 mmHg 57%
    02:00 +12°C° 0 mm 2 m/S 766 mmHg 58%
    03:00 +12°C° 0 mm 2 m/S 766 mmHg 60%
    04:00 +12°C° 0 mm 2 m/S 765 mmHg 61%
    05:00 +12°C° 0 mm 2 m/S 765 mmHg 63%
    06:00 +13°C° 0 mm 2 m/S 765 mmHg 58%
    07:00 +15°C° 0 mm 2 m/S 765 mmHg 53%
    08:00 +16°C° 0 mm 2 m/S 765 mmHg 48%
    09:00 +18°C° 0 mm 2 m/S 764 mmHg 43%
    10:00 +19°C° 0 mm 2 m/S 764 mmHg 39%
    11:00 +21°C° 0 mm 3 m/S 764 mmHg 34%
    12:00 +21°C° 0 mm 3 m/S 764 mmHg 34%
    13:00 +22°C° 0 mm 3 m/S 763 mmHg 34%
    14:00 +23°C° 0 mm 4 m/S 763 mmHg 34%
    15:00 +22°C° 0 mm 3 m/S 763 mmHg 37%
    16:00 +21°C° 0 mm 3 m/S 762 mmHg 39%
    17:00 +20°C° 0 mm 3 m/S 762 mmHg 42%
    18:00 +19°C° 0 mm 3 m/S 762 mmHg 45%
    19:00 +17°C° 0 mm 2 m/S 762 mmHg 48%
    20:00 +16°C° 0 mm 2 m/S 762 mmHg 51%
    21:00 +16°C° 0 mm 2 m/S 762 mmHg 53%
    22:00 +15°C° 0 mm 2 m/S 762 mmHg 54%
    23:00 +15°C° 0 mm 2 m/S 762 mmHg 56%

    29 September, Samstag

    Zeit Temperatur Niederschläge Wind Luftdruck Luftfeuchtigkeit
    00:00 +15°C° 0 mm 1 m/S 762 mmHg 58%
    01:00 +15°C° 0 mm 1 m/S 762 mmHg 60%
    02:00 +15°C° 0 mm 1 m/S 762 mmHg 62%
    03:00 +14°C° 0 mm 1 m/S 761 mmHg 63%
    04:00 +14°C° 0 mm 1 m/S 761 mmHg 65%
    05:00 +14°C° 0 mm 1 m/S 761 mmHg 66%
    06:00 +15°C° 0 mm 1 m/S 761 mmHg 62%
    07:00 +18°C° 0 mm 1 m/S 761 mmHg 57%
    08:00 +19°C° 0 mm 1 m/S 761 mmHg 53%
    09:00 +20°C° 0 mm 1 m/S 761 mmHg 50%
    10:00 +22°C° 0 mm 1 m/S 760 mmHg 46%
    11:00 +23°C° 0 mm 1 m/S 760 mmHg 43%
    12:00 +24°C° 0 mm 1 m/S 760 mmHg 41%
    13:00 +25°C° 0 mm 2 m/S 759 mmHg 40%
    14:00 +25°C° 0 mm 2 m/S 759 mmHg 38%
    15:00 +24°C° 0 mm 2 m/S 759 mmHg 41%
    16:00 +24°C° 0 mm 3 m/S 759 mmHg 43%
    17:00 +22°C° 0 mm 3 m/S 759 mmHg 46%
    18:00 +21°C° 0 mm 3 m/S 759 mmHg 50%
    19:00 +19°C° 0 mm 3 m/S 760 mmHg 55%
    20:00 +18°C° 0 mm 4 m/S 760 mmHg 59%
    21:00 +16°C° 0 mm 5 m/S 760 mmHg 64%
    22:00 +15°C° 0 mm 6 m/S 760 mmHg 70%
    23:00 +14°C° 0 mm 7 m/S 761 mmHg 75%
    Mehr zeigen

    3.3.7123123